Date,TemperatureHighF,TemperatureAvgF,TemperatureLowF,DewpointHighF,DewpointAvgF,DewpointLowF,HumidityHigh,HumidityAvg,HumidityLow,PressureMaxIn,PressureMinIn,WindSpeedMaxMPH,WindSpeedAvgMPH,GustSpeedMaxMPH,PrecipitationSumIn
2013-10-1,82,68,60,66,62,59,100,85,55,29.99,29.90,4,2,14,0.00
2013-10-2,79,68,54,69,62,54,100,84,49,30.04,29.92,6,2,17,0.00
2013-10-3,83,64,51,72,60,48,100,88,63,30.04,29.93,3,1,11,0.40
2013-10-4,80,71,65,71,68,65,100,91,69,30.00,29.93,6,2,17,0.21
2013-10-5,81,69,63,72,67,63,100,94,69,30.01,29.90,3,1,9,0.57
2013-10-6,85,75,66,73,68,65,100,82,56,29.89,29.62,8,3,25,0.02
2013-10-7,69,56,50,68,52,44,100,86,57,29.99,29.63,10,4,26,0.93
2013-10-8,72,57,47,57,48,41,99,75,35,30.17,29.95,2,1,9,0.01
2013-10-9,77,59,50,54,47,43,100,67,32,30.22,30.10,4,2,14,0.00
2013-10-10,73,59,44,54,46,39,99,65,34,30.13,29.97,4,1,12,0.00
2013-10-11,76,58,46,55,48,44,100,75,35,30.00,29.94,5,1,12,0.00
2013-10-12,80,62,46,61,54,45,100,77,48,30.00,29.91,5,1,14,0.00
2013-10-13,74,65,60,66,58,52,100,79,63,30.12,29.97,6,3,20,0.06
2013-10-14,70,59,46,57,49,43,100,73,40,30.19,29.90,4,1,14,0.01
2013-10-15,76,60,45,62,56,44,100,86,59,29.90,29.55,7,2,20,0.00
2013-10-16,71,63,58,66,60,51,100,91,76,30.00,29.40,8,4,21,0.53
2013-10-17,70,56,50,55,51,49,100,87,51,30.01,29.84,6,2,17,0.46
2013-10-18,67,55,48,50,47,42,100,76,45,30.06,29.91,8,4,21,0.09
2013-10-19,58,51,44,52,46,43,100,84,63,30.01,29.80,8,4,18,0.58
2013-10-20,60,49,41,46,42,39,100,79,49,30.08,29.96,9,4,23,0.58
2013-10-21,68,57,50,55,43,39,100,61,39,30.08,29.92,8,5,24,0.04
2013-10-22,53,47,42,51,39,32,100,74,53,30.01,29.90,8,4,20,0.31
2013-10-23,52,42,38,44,38,29,100,87,55,29.96,29.86,5,2,17,0.25
2013-10-24,45,39,35,40,37,30,100,92,56,30.18,29.95,7,4,21,0.12
2013-10-25,54,44,40,42,38,32,100,80,52,30.36,30.18,6,3,20,0.08
2013-10-26,46,42,40,42,32,28,100,67,54,30.26,29.93,12,7,31,0.21
2013-10-27,51,45,40,42,37,33,96,73,54,30.17,30.00,5,2,17,0.00
2013-10-28,59,46,40,45,38,31,86,73,59,30.46,30.16,6,2,14,0.00
2013-10-29,60,41,31,40,35,31,100,79,40,30.52,30.36,5,0,10,0.00
2013-10-30,71,51,38,46,40,35,92,69,36,30.37,30.15,3,1,9,0.00
2013-10-31,68,61,53,63,59,46,100,92,74,30.15,29.42,14,7,40,0.63